Location: Newark
(29.9790°N, 31.1340°E)
Time: 01:02:06
(UTC+00:00)

Vanguard 3 - Pass Details

Date: 20 January 2021
Orbit: 508 x 3262 km, 33.4° (Epoch: 06 March)

Event Time Altitude Azimuth Distance (km) Brightness Sun altitude
Exits shadow 02:40:37 51° 255° (WSW) 1,758 8.4 -28.0°
Maximum altitude 02:43:25 89° 344° (NNW) 1,644 8.5 -27.4°
Drops below altitude 10° 02:57:38 10° 75° (ENE) 5,263 12.1 -24.4°
Sets 03:02:38 0° 76° (ENE) 6,636 12.9 -23.3°
